Flag for Germany Weather past 2 weeks in Heide, Schleswig-Holstein, Germany

Now
48 °F

Cool.


Feels Like: 42 °F
Forecast: 41 / 45 °F
Wind: 17 mph from Southwest

Location: Hohn

Current Time: Mar 29, 2015 at 5:42:16 AM

Latest Report: Mar 29, 2015 at 4:20 AM


Visibility: 3 mi

Pressure: 29.45 "Hg

Humidity: 100%

Dew point: 48 °F

Location of HeideLocation

Historic Weather in Heide — Graph

°F

Heide temperature yesterday

Maximum temperature yesterday: 48 °F (at 12:20 PM)
Minimum temperature yesterday: 36 °F (at 12:20 AM)
Average temperature yesterday: 44 °F

Past Weeks' High & Low Weather Summary

 TemperatureHumidityPressure
High57 °F (Mar 18, 1:20 PM)100% (Mar 20, 7:20 AM)30.54 "Hg (Mar 20, 7:20 AM)
Low27 °F (Mar 20, 5:20 AM)25% (Mar 19, 2:20 PM)29.45 "Hg (Mar 29, 4:20 AM)
Average42 °F78%30.12 "Hg
* Reported Mar 14 3:20 AM — Mar 29 4:20 AM, Heide, Weather by CustomWeather, © 2015

Note: Actual official high and low records may vary slightly from our data, if they occured in-between our weather recording intervals... More about our weather records

Advertising

Heide weather history for previous 24 hours

 ConditionsComfort  
Time TempWeatherWind HumidityBarometerVisibility
4:20 AM
Sun, Mar 29
48 °FCool.17 mph100%29.45 "Hg2 mi
3:20 AM50 °FCool.16 mph94%29.47 "Hg3 mi
1:20 AM50 °FCool.14 mph94%29.50 "Hg4 mi
12:20 AM48 °FCool.15 mph94%29.56 "Hg1 mi
11:20 PM
Sat, Mar 28
46 °FCool.14 mph93%29.59 "Hg2 mi
10:20 PM46 °FCool.16 mph93%29.62 "Hg3 mi
9:20 PM45 °FQuite cool.15 mph100%29.68 "Hg2 mi
8:20 PM45 °FQuite cool.16 mph93%29.71 "Hg1 mi
7:20 PM45 °FDrizzle. Fog.16 mph87%29.74 "Hg3 mi
6:20 PM46 °FLight rain. Partly sunny.10 mph76%29.77 "Hg4 mi
5:20 PM46 °FLight rain. Partly sunny.14 mph71%29.80 "Hg4 mi
4:20 PM48 °FCool.13 mph54%29.83 "HgN/A
3:20 PM48 °FCool.13 mph58%29.89 "HgN/A
2:20 PM48 °FCool.14 mph54%29.92 "HgN/A
1:20 PM48 °FCool.14 mph54%29.95 "HgN/A
12:20 PM48 °FCool.13 mph58%30.01 "HgN/A
11:20 AM45 °FQuite cool.13 mph66%30.04 "HgN/A
10:20 AM43 °FQuite cool.9 mph81%30.07 "Hg6 mi
9:20 AM41 °FQuite cool.9 mph87%30.07 "HgN/A
8:20 AM43 °FQuite cool.6 mph87%30.09 "HgN/A
7:20 AM41 °FQuite cool.5 mph93%30.09 "Hg5 mi
6:20 AM39 °FChilly.6 mph100%30.09 "Hg3 mi
5:20 AM41 °FQuite cool.3 mph93%30.09 "Hg3 mi
Weather by CustomWeather, © 2015

See weather overviewHow to use our weather pages